{"data":{"norad_id":58975,"epoch":"2026-05-24T15:45:40.323744Z","epoch_age_seconds":98471,"freshness":"FRESH","line1":"1 58975U 24031L   26144.65671671  .00000201  00000+0  18925-4 0  9991","line2":"2 58975  53.1622 303.8626 0000925  67.4851 292.6247 15.30192978128143","mean_motion":15.30192978,"eccentricity":9.25e-5,"inclination_deg":53.1622,"raan_deg":303.8626,"arg_perigee_deg":67.4851,"mean_anomaly_deg":292.6247,"bstar":1.8925e-5,"rev_number":12814,"period_min":94.105777552457,"perigee_km":474.60209891996,"apogee_km":475.8699729316,"semimajor_km":6853.3730359258,"source":"CELESTRAK","updated_at":"2026-05-25T13:38:18.795243Z"}}